This demonstration page uses our WeatherBlox Daily Observations layout. Learn more.

Left ArrowRight Arrow

Hourly Observations for September 9, 2019

Temp ( °F °C ) Dew Point ( °F °C ) Humidity (%) Winds ( mph kmh ) Pressure ( in mb ) Visibility ( mi km ) Precip ( " mm )
12:53 am 00:53 Clear 72 22.2 60 15.6 66 66 Calm 30.03 1017 10 16 0.00 0.00
1:53 am 01:53 Clear 68 20 61 16.1 78 78 Calm 30.03 1017 10 16 0.00 0.00
2:53 am 02:53 Clear 66 18.9 61 16.1 84 84 NW 3 6 30.04 1017 10 16 0.00 0.00
3:53 am 03:53 Clear 67 19.4 61 16.1 81 81 Calm 30.04 1017 10 16 0.00 0.00
4:53 am 04:53 Clear 64 17.8 61 16.1 90 90 Calm 30.04 1017 10 16 0.00 0.00
5:53 am 05:53 Clear 64 17.8 61 16.1 90 90 Calm 30.06 1018 10 16 0.00 0.00
6:53 am 06:53 Clear 64 17.8 61 16.1 90 90 Calm 30.08 1019 10 16 0.00 0.00
7:53 am 07:53 Sunny 67 19.4 62 16.7 84 84 Calm 30.11 1020 10 16 0.00 0.00
8:53 am 08:53 Sunny 74 23.3 63 17.2 69 69 Calm 30.12 1020 10 16 0.00 0.00
10:53 am 10:53 Sunny 86 30 63 17.2 46 46 NE 5 7 30.13 1020 10 16 0.00 0.00
11:53 am 11:53 Sunny 92 33.3 60 15.6 34 34 VRB 3 6 30.12 1020 10 16 0.00 0.00
1:53 pm 13:53 Sunny 94 34.4 58 14.4 30 30 Calm 30.10 1019 10 16 0.00 0.00
2:53 pm 14:53 Sunny 96 35.6 58 14.4 28 28 WSW 3 6 30.06 1018 10 16 0.00 0.00
3:53 pm 15:53 Sunny 98 36.7 58 14.4 26 26 N 9 15 30.04 1017 10 16 0.00 0.00
4:53 pm 16:53 Sunny 98 36.7 57 13.9 25 25 E 3 6 30.05 1018 10 16 0.00 0.00
5:53 pm 17:53 Sunny 97 36.1 56 13.3 25 25 E 7 11 30.06 1018 10 16 0.00 0.00
6:53 pm 18:53 Sunny 96 35.6 57 13.9 27 27 Calm 30.05 1018 10 16 0.00 0.00
7:53 pm 19:53 Sunny 88 31.1 63 17.2 43 43 NE 3 6 30.06 1018 10 16 0.00 0.00
8:53 pm 20:53 Clear 83 28.3 63 17.2 51 51 Calm 30.06 1018 10 16 0.00 0.00
9:53 pm 21:53 Clear 89 31.7 60 15.6 38 38 SE 6 9 30.09 1019 10 16 0.00 0.00
10:53 pm 22:53 Clear 79 26.1 65 18.3 62 62 NE 3 6 30.10 1019 10 16 0.00 0.00
11:53 pm 23:53 Clear 77 25 66 18.9 69 69 Calm 30.12 1020 10 16 0.00 0.00

Powered by AerisWeather